K7KWR Weather Reports


Display with metric or nautical units.
time (UTC)temp
F
wind
direction
speed
MPH
gust
MPH
rain 1hr
in
rain 24hr
in
rain mn
in
humidity
%
barometer
mb
20210301193453 53 284 0.0 0.0 0.00 0.00 0.00
20210301193437 53 284 0.0 0.0 0.00 0.00 0.00
20210301191846 56 267 0.0 0.0 0.00 0.00 0.00
20210301190424 56 145 0.0 0.0 0.00 0.00 0.00
20210301190345 56 145 0.0 0.0 0.00 0.00 0.00
20210301185037 52 0 0.0 0.0 0.00 0.00 0.00
20210301184908 52 0 0.0 0.0 0.00 0.00 0.00
20210301183653 55 18 0.0 0.0 0.00 0.00 0.00
20210301182113 58 218 0.0 0.0 0.00 0.00 0.00
20210301181930 58 218 0.0 0.0 0.00 0.00 0.00
20210301181844 58 218 0.0 0.0 0.00 0.00 0.00
20210301180344 56 218 0.0 0.0 0.00 0.00 0.00
20210301175159 55 176 0.0 0.0 0.00 0.00 0.00
20210301175131 55 176 0.0 0.0 0.00 0.00 0.00
20210301175021 55 176 0.0 0.0 0.00 0.00 0.00
20210301173529 55 150 0.0 0.0 0.00 0.00 0.00
20210301173421 55 150 0.0 0.0 0.00 0.00 0.00
20210301173408 55 150 0.0 0.0 0.00 0.00 0.00
20210301172018 50 200 1.0 0.0 0.00 0.00 0.00
20210301171845 50 200 1.0 0.0 0.00 0.00 0.00
20210301170349 51 197 0.0 0.0 0.00 0.00 0.00
20210301165046 47 201 2.0 0.0 0.00 0.00 0.00
20210301164932 47 201 2.0 0.0 0.00 0.00 0.00
20210301163554 46 249 3.0 0.0 0.00 0.00 0.00
20210301163529 46 249 3.0 0.0 0.00 0.00 0.00
20210301163521 46 249 3.0 0.0 0.00 0.00 0.00
20210301162042 50 172 0.0 0.0 0.00 0.00 0.00
20210301161923 50 172 0.0 0.0 0.00 0.00 0.00
20210301161853 50 172 0.0 0.0 0.00 0.00 0.00
20210301160551 50 195 0.0 0.0 0.00 0.00 0.00
20210301160434 50 195 0.0 0.0 0.00 0.00 0.00
20210301160346 50 195 0.0 0.0 0.00 0.00 0.00
20210301155154 52 173 0.0 0.0 0.00 0.00 0.00
20210301155122 52 173 0.0 0.0 0.00 0.00 0.00
20210301155024 52 173 0.0 0.0 0.00 0.00 0.00
20210301152130 46 8 4.0 0.0 0.00 0.00 0.00
20210301151924 46 8 4.0 0.0 0.00 0.00 0.00
20210301151849 46 8 4.0 0.0 0.00 0.00 0.00
20210301150609 44 127 0.0 0.0 0.00 0.00 0.00
20210301150420 44 127 0.0 0.0 0.00 0.00 0.00
20210301150346 44 127 0.0 0.0 0.00 0.00 0.00
20210301144923 35 127 0.0 0.0 0.00 0.00 0.00
20210301144844 35 127 0.0 0.0 0.00 0.00 0.00
20210301143345 29 127 0.0 0.0 0.00 0.00 0.00
20210301140555 20 127 0.0 0.0 0.00 0.00 0.00
20210301140349 20 127 0.0 0.0 0.00 0.00 0.00
20210301135056 22 127 0.0 0.0 0.00 0.00 0.00
20210301135000 22 127 0.0 0.0 0.00 0.00 0.00
20210301134844 22 127 0.0 0.0 0.00 0.00 0.00
20210301133346 22 127 0.0 0.0 0.00 0.00 0.00
20210301132135 22 127 0.0 0.0 0.00 0.00 0.00
20210301131903 22 127 0.0 0.0 0.00 0.00 0.00
20210301130556 20 152 0.0 0.0 0.00 0.00 0.00
20210301130346 20 152 0.0 0.0 0.00 0.00 0.00
20210301124940 21 273 0.0 0.0 0.00 0.00 0.00
20210301123551 20 273 0.0 0.0 0.00 0.00 0.00
20210301123344 20 273 0.0 0.0 0.00 0.00 0.00
20210301121844 21 129 0.0 0.0 0.00 0.00 0.00
20210301120350 22 117 0.0 0.0 0.00 0.00 0.00
20210301110349 24 125 0.0 0.0 0.00 0.00 0.00
20210301104852 25 125 0.0 0.0 0.00 0.00 0.00
20210301103606 22 136 0.0 0.0 0.00 0.00 0.00
20210301103346 22 136 0.0 0.0 0.00 0.00 0.00
20210301102055 24 136 0.0 0.0 0.00 0.00 0.00
20210301101853 24 136 0.0 0.0 0.00 0.00 0.00
20210301100548 24 314 0.0 0.0 0.00 0.00 0.00
20210301100343 24 314 0.0 0.0 0.00 0.00 0.00
20210301093551 25 314 0.0 0.0 0.00 0.00 0.00
20210301093343 25 314 0.0 0.0 0.00 0.00 0.00
20210301091855 24 314 0.0 0.0 0.00 0.00 0.00
20210301090353 23 314 0.0 0.0 0.00 0.00 0.00
20210301085220 24 314 0.0 0.0 0.00 0.00 0.00
20210301084843 24 314 0.0 0.0 0.00 0.00 0.00
20210301081845 26 314 0.0 0.0 0.00 0.00 0.00
20210301080343 27 314 0.0 0.0 0.00 0.00 0.00
20210301074843 27 314 0.0 0.0 0.00 0.00 0.00
20210301073347 27 314 0.0 0.0 0.00 0.00 0.00
20210301071843 31 314 0.0 0.0 0.00 0.00 0.00
20210301064846 33 8 0.0 0.0 0.00 0.00 0.00
20210301063343 35 340 1.0 0.0 0.00 0.00 0.00
20210301060343 33 0 3.0 0.0 0.00 0.00 0.00
20210301054844 31 6 0.0 0.0 0.00 0.00 0.00
20210301053346 27 82 0.0 0.0 0.00 0.00 0.00
20210301051843 29 82 0.0 0.0 0.00 0.00 0.00
20210301050348 28 82 0.0 0.0 0.00 0.00 0.00
20210301044941 30 82 0.0 0.0 0.00 0.00 0.00
20210301043346 31 82 0.0 0.0 0.00 0.00 0.00
20210301041845 30 82 0.0 0.0 0.00 0.00 0.00
20210301040344 29 82 0.0 0.0 0.00 0.00 0.00
20210301035208 32 82 0.0 0.0 0.00 0.00 0.00
20210301033343 30 82 0.0 0.0 0.00 0.00 0.00
20210301031843 33 82 0.0 0.0 0.00 0.00 0.00
20210301030343 34 82 0.0 0.0 0.00 0.00 0.00
20210301024844 39 82 0.0 0.0 0.00 0.00 0.00
20210301023344 40 53 0.0 0.0 0.00 0.00 0.00
20210301021843 41 46 0.0 0.0 0.00 0.00 0.00
20210301020348 43 37 6.0 0.0 0.00 0.00 0.00
20210301011843 45 56 7.0 0.0 0.00 0.00 0.00
20210301005058 48 38 3.0 0.0 0.00 0.00 0.00
20210301003342 48 28 10.0 0.0 0.00 0.00 0.00
20210301001846 49 11 14.0 0.0 0.00 0.00 0.00
20210228234908 51 63 8.0 0.0 0.00 0.00 0.00
20210228233343 50 49 5.0 0.0 0.00 0.00 0.00
20210228231842 51 52 9.0 0.0 0.00 0.00 0.00
20210228230345 51 41 6.0 0.0 0.00 0.00 0.00
20210228224908 50 15 11.0 0.0 0.00 0.00 0.00
20210228223348 51 41 12.0 0.0 0.00 0.00 0.00
20210228221848 51 17 8.0 0.0 0.00 0.00 0.00
20210228220346 51 59 10.0 0.0 0.00 0.00 0.00
20210228214856 50 28 7.0 0.0 0.00 0.00 0.00
20210228213342 50 120 8.0 0.0 0.00 0.00 0.00
20210228211849 51 59 8.0 0.0 0.00 0.00 0.00
20210228210342 51 15 10.0 0.0 0.00 0.00 0.00
20210228205024 51 65 6.0 0.0 0.00 0.00 0.00
20210228200342 51 31 6.0 0.0 0.00 0.00 0.00
20210228194917 51 32 8.0 0.0 0.00 0.00 0.00
20210228194843 51 32 8.0 0.0 0.00 0.00 0.00